Wind_Speed
12 11 10 10 8 9 9 11 11 11 9 8 7 7 6 6 5 4 4 4 3 3 3 3 3 2 1 1 1 1 1 2 3 4 5 6 6 7 8 9 9 9 10 10 11 11 12 12 11
10 8 8 8 9 9 10 11 11 10 9 8 7 6 5 5 4 4 4 3 3 3 3 3 2 2 2 2 2 2 3 3 4 4 5 6 7 7 8 8 8 9 9 9 10 10 11 11 10
7 6 6 6 7 8 10 10 10 10 10 9 7 6 6 5 4 4 4 4 4 4 4 4 4 4 4 4 4 5 5 5 6 6 6 6 7 7 8 8 8 9 9 9 9 9 9 9 9
6 5 5 6 7 9 10 10 10 10 10 9 8 8 7 6 5 6 7 7 7 7 7 6 7 7 7 7 7 7 7 7 7 8 8 8 8 8 8 8 8 9 8 8 8 8 8 8 8
5 6 7 7 7 9 9 9 10 10 10 9 9 9 8 8 7 7 8 9 9 9 10 10 10 10 11 10 10 10 10 10 10 10 10 9 9 9 9 9 9 9 9 8 8 7 7 8 8
7 7 8 9 7 7 9 10 10 10 11 11 11 11 11 10 9 9 10 10 11 11 12 13 13 13 14 14 14 14 13 13 13 12 12 12 11 11 11 10 10 10 9 9 9 8 8 7 7
6 8 8 9 8 9 11 11 11 12 13 13 14 13 13 13 13 13 13 13 14 14 15 16 16 17 17 17 17 17 17 16 16 15 15 14 14 13 13 12 12 11 11 10 9 9 8 8 7
7 8 9 9 9 10 11 12 14 14 15 16 16 16 17 16 17 17 17 17 17 18 18 18 19 20 20 20 20 20 19 19 20 19 18 18 17 16 16 15 14 13 12 12 11 10 9 8 7
7 8 9 9 10 10 11 13 15 17 18 19 19 19 20 20 20 20 20 21 21 22 22 22 23 23 23 23 24 23 23 22 22 22 21 21 20 20 18 18 17 16 15 14 13 12 11 10 9
8 8 9 11 11 12 13 14 16 18 20 21 21 21 22 22 22 22 23 24 25 26 26 26 26 26 26 26 27 27 27 25 25 24 24 24 24 23 22 20 20 19 18 16 15 14 13 12 11
9 9 10 12 13 14 16 17 19 21 21 22 22 23 24 24 25 25 26 27 27 28 29 30 30 30 29 29 29 29 29 28 28 27 27 26 26 26 25 24 23 22 21 19 18 17 16 15 13
10 11 12 13 15 16 18 20 21 22 23 23 24 26 27 28 29 29 30 30 31 31 32 32 33 33 33 33 33 32 31 31 31 30 30 28 28 28 28 28 27 25 24 23 21 20 18 17 16
11 13 14 16 17 18 19 21 22 24 24 26 27 28 30 31 32 32 33 33 33 33 34 35 35 35 35 35 36 36 35 34 34 33 32 31 31 30 30 29 29 28 27 25 24 22 21 20 19
13 14 15 16 17 18 18 19 22 25 26 27 28 29 30 31 32 32 33 33 34 35 35 36 37 37 37 37 37 36 36 36 36 36 35 34 34 32 31 32 31 31 29 28 27 26 24 23 21
14 15 16 16 16 17 17 19 23 25 27 28 28 29 29 29 30 31 32 32 33 34 35 35 36 37 38 38 38 38 38 37 36 37 36 36 36 35 33 33 33 32 32 30 29 28 27 26 24
15 15 16 16 17 19 20 21 24 26 27 28 29 29 30 30 31 31 31 32 32 33 33 34 35 36 36 37 38 39 39 39 38 38 38 37 37 37 36 35 34 34 33 31 31 32 29 27 27
16 16 16 17 19 21 21 23 25 26 26 27 28 28 29 29 29 29 30 31 31 32 32 33 33 34 35 36 36 37 37 38 39 39 38 38 38 38 37 36 35 35 34 33 32 33 33 31 28
15 16 17 18 21 21 22 24 25 25 26 27 27 28 28 29 29 30 29 29 29 30 30 30 31 31 32 33 34 35 35 36 38 38 38 38 38 38 37 36 35 35 35 35 34 33 32 32 31
14 15 17 19 21 22 23 23 23 24 24 25 25 27 28 30 30 30 29 29 29 29 29 29 29 29 30 31 32 33 34 35 36 37 38 38 38 38 38 37 37 36 35 35 35 33 32 32 33
13 15 18 19 21 22 22 21 21 21 22 23 25 27 28 30 30 30 30 29 28 27 26 27 27 27 27 27 29 30 31 33 34 35 36 36 37 37 38 38 38 37 36 36 35 35 34 34 34
13 15 17 18 19 20 20 20 19 20 22 24 25 27 29 30 30 30 29 28 26 26 25 25 24 24 24 24 25 26 28 29 31 32 33 34 35 36 37 38 38 38 38 38 37 36 35 35 34
12 14 16 17 18 19 19 18 19 21 22 24 26 28 30 31 31 30 29 28 26 24 23 22 22 22 22 22 22 22 23 24 25 27 29 31 33 34 36 37 38 38 38 38 38 37 36 36 36
11 13 14 15 16 17 17 17 18 21 23 25 27 29 30 31 31 30 29 28 26 24 22 21 21 21 20 20 19 19 19 20 21 23 25 27 29 31 33 35 36 37 38 38 38 38 37 37 37
9 11 12 14 14 14 15 16 18 20 23 25 27 28 30 30 30 30 29 27 26 25 23 21 21 20 19 19 18 17 17 17 18 19 21 23 25 27 29 31 34 35 37 38 39 38 38 38 38
8 9 10 12 13 13 14 16 18 20 22 24 26 27 29 29 29 29 28 27 26 26 24 22 21 20 20 19 18 16 15 14 14 15 17 18 20 22 25 28 30 33 35 37 39 39 39 39 39
6 7 9 11 12 13 14 16 17 19 20 22 24 26 27 28 28 28 27 27 27 26 25 24 22 21 20 19 18 16 15 13 12 11 12 14 16 18 21 24 27 30 32 34 36 37 38 39 39
5 6 8 10 11 12 13 14 16 18 19 21 23 25 26 28 28 28 28 27 27 26 26 25 23 22 21 20 19 16 15 13 12 10 9 10 12 14 17 20 23 26 29 31 33 35 37 38 39
4 6 7 9 11 12 12 14 16 18 19 21 23 25 26 27 28 28 28 27 27 27 27 26 25 24 23 21 19 17 15 14 12 10 8 8 9 10 13 17 19 23 26 28 29 32 35 36 38
3 5 6 8 10 11 12 14 16 17 19 21 23 25 26 26 27 28 28 28 27 27 27 27 26 25 24 23 22 20 17 16 14 11 8 7 7 8 10 13 15 18 21 24 26 29 32 34 35
2 4 6 7 9 10 12 14 16 17 19 21 23 24 25 26 27 27 28 28 28 27 27 27 27 26 26 25 24 22 20 18 15 13 10 8 6 6 7 9 11 14 17 21 22 25 28 31 34
Wind_Direction
60 55 49 45 44 44 48 52 54 59 58 52 47 46 47 45 35 27 26 36 26 29 29 31 34 34 25 8 339 268 248 242 245 250 252 252 251 253 256 257 260 261 261 260 259 263 265 264 266
57 49 40 30 36 38 43 47 47 48 50 45 38 33 31 31 22 9 358 351 349 352 349 347 339 325 306 289 281 272 260 255 254 255 257 256 256 256 258 260 262 264 265 266 265 266 267 266 266
45 33 27 26 33 38 44 42 39 32 29 26 18 15 13 6 352 342 332 323 323 322 317 312 302 292 283 274 267 265 263 259 258 258 260 260 260 260 259 260 263 267 269 269 270 270 269 266 267
25 6 8 20 32 37 38 31 27 20 15 8 2 358 353 349 336 324 317 312 308 304 300 296 285 279 273 267 262 259 259 258 258 258 259 260 260 261 263 264 266 267 269 271 272 273 272 270 271
7 353 358 12 25 29 25 21 15 7 358 357 352 343 336 333 330 320 310 307 302 296 291 288 282 273 267 263 262 259 257 257 256 257 258 259 259 260 261 263 266 267 268 269 271 273 275 276 276
342 341 357 8 16 15 10 1 360 352 345 343 339 332 326 319 315 312 306 301 298 292 286 282 278 275 272 266 259 257 255 255 255 255 256 256 257 258 259 259 261 263 265 267 269 271 274 278 280
326 332 341 357 357 352 353 347 344 339 334 331 327 323 323 316 311 304 299 294 290 285 283 281 276 274 272 270 265 260 256 254 253 253 254 255 256 257 257 257 257 259 261 262 264 267 271 274 277
318 323 326 336 342 343 338 336 333 329 326 324 322 319 315 311 307 302 298 292 287 283 279 278 277 272 269 269 267 263 260 257 254 254 254 254 254 255 256 255 255 256 257 258 259 261 263 267 269
316 323 323 331 334 335 329 326 324 322 320 318 316 313 310 307 303 298 293 289 286 282 279 276 274 272 269 267 265 262 261 259 257 257 256 254 254 254 254 254 254 254 255 256 257 256 257 258 260
309 317 318 320 323 324 322 321 318 316 315 315 313 310 307 304 301 296 292 288 285 282 279 276 272 270 269 267 265 263 261 258 257 256 254 254 253 253 252 252 252 252 252 253 254 255 255 253 254
300 309 314 316 318 319 320 320 316 314 315 315 313 310 307 305 302 297 292 289 285 282 279 276 274 271 268 266 265 264 262 259 257 255 255 254 253 252 251 250 249 250 250 250 250 251 252 251 249
294 300 307 313 316 317 320 319 315 314 315 314 312 310 307 304 302 299 295 291 287 283 280 278 276 273 269 266 265 263 262 260 259 257 255 254 252 251 251 250 249 249 248 249 249 248 248 249 248
287 299 310 316 318 319 320 317 314 315 315 313 311 309 307 305 302 300 297 294 290 287 283 280 277 274 271 268 266 264 262 259 258 258 256 254 253 253 251 250 249 249 247 247 247 246 244 246 245
297 304 309 313 313 313 315 315 315 316 315 313 312 311 310 307 305 302 299 296 292 289 286 283 279 276 273 270 268 265 262 260 258 257 256 254 253 252 251 251 250 248 246 246 246 245 243 243 243
298 304 310 312 312 315 316 317 318 317 316 317 316 315 315 312 308 305 301 297 294 291 288 285 282 278 275 272 269 267 264 263 260 257 255 254 252 250 250 251 249 247 245 245 244 244 244 241 240
299 303 306 310 312 320 323 322 321 320 320 320 320 320 318 315 311 307 304 300 298 295 292 289 285 281 277 274 272 269 267 264 261 258 256 254 251 250 249 249 247 245 244 244 244 244 242 241 239
298 301 306 314 321 325 325 325 326 325 325 325 325 324 323 321 318 314 310 305 302 300 297 294 290 285 281 277 274 271 268 265 262 259 256 254 252 250 249 249 248 244 242 242 243 244 242 240 237
298 305 315 322 324 326 327 328 329 330 330 331 331 330 329 327 324 321 316 312 307 304 302 298 294 289 284 280 276 273 270 266 262 259 256 254 252 249 248 248 247 243 240 240 241 244 240 238 237
301 310 319 323 324 327 330 331 332 333 334 334 335 335 334 332 330 327 323 318 312 308 305 302 298 293 288 283 278 275 272 268 264 259 256 253 251 249 247 246 245 244 240 239 239 238 238 237 235
306 313 318 322 325 328 332 333 335 337 339 341 342 341 339 338 336 333 329 324 320 315 310 307 303 299 293 288 283 278 273 269 265 261 256 253 251 248 245 243 243 242 239 238 237 238 238 236 233
307 313 318 323 326 330 334 336 340 343 347 349 348 347 346 345 343 340 336 332 327 323 319 314 310 307 301 295 290 283 277 272 267 262 257 253 251 248 245 242 241 240 238 237 237 238 236 235 232
307 314 319 324 329 332 336 340 347 352 355 356 353 351 351 349 347 344 342 339 335 331 328 324 320 316 311 305 299 291 283 277 269 262 257 253 250 248 245 242 240 239 237 236 236 237 236 234 232
308 315 320 325 331 333 340 347 356 0 0 358 356 354 353 351 349 349 347 347 345 341 336 332 328 324 320 315 309 301 292 283 274 265 259 255 251 248 246 242 239 237 236 236 235 236 235 234 233
312 320 324 330 334 338 347 354 1 2 0 359 359 357 356 355 355 354 354 353 351 349 346 341 338 335 332 326 321 312 301 292 279 269 261 257 251 246 244 241 237 235 235 234 234 234 233 233 232
315 323 329 335 340 349 357 2 4 3 2 1 360 359 359 359 359 359 359 359 358 356 354 351 347 345 341 338 335 328 317 306 292 277 265 257 251 245 241 238 236 235 234 233 233 233 231 231 230
318 329 337 343 350 359 5 7 7 6 4 3 2 2 2 2 1 2 2 3 3 3 2 360 358 354 351 348 345 340 335 326 312 294 275 262 252 245 239 236 235 234 233 232 232 231 229 229 229
327 341 346 352 1 7 10 11 11 8 6 6 6 5 6 5 6 7 7 7 7 8 7 5 4 2 360 357 353 350 346 338 327 314 291 270 258 249 241 238 238 237 234 233 231 229 229 228 227
338 350 356 1 6 11 13 13 13 12 11 11 10 9 8 8 9 10 10 10 11 11 11 11 10 8 7 6 4 0 355 351 345 335 312 282 269 257 248 244 242 239 236 233 231 228 226 225 224
347 358 5 12 13 14 16 17 14 14 13 13 12 11 10 10 11 12 13 14 14 14 14 15 15 14 14 13 11 9 6 1 357 351 339 309 286 271 256 249 245 240 236 232 229 227 225 224 224
3 14 15 17 17 18 18 17 15 15 15 14 13 12 11 11 12 13 14 15 16 16 16 16 17 17 17 16 16 15 14 11 9 5 359 344 318 288 270 256 249 240 234 231 229 226 225 225 225
Height
5936 5935 5934 5935 5934 5933 5932 5931 5929 5928 5928 5926 5925 5925 5924 5924 5924 5925 5922 5919 5919 5918 5917 5916 5916 5915 5915 5914 5914 5914 5913 5913 5914 5914 5914 5914 5914 5914 5914 5914 5914 5913 5913 5913 5912 5912 5912 5912 5911
5937 5936 5937 5937 5935 5934 5933 5931 5930 5929 5929 5927 5926 5926 5925 5924 5923 5922 5921 5920 5919 5918 5918 5917 5916 5915 5915 5914 5914 5914 5914 5913 5913 5913 5913 5913 5913 5913 5913 5913 5913 5912 5912 5912 5912 5911 5911 5911 5910
5938 5937 5938 5938 5936 5935 5934 5932 5930 5929 5929 5928 5927 5926 5925 5925 5923 5922 5921 5920 5919 5918 5917 5917 5916 5915 5915 5914 5914 5913 5913 5913 5913 5913 5912 5912 5912 5912 5912 5912 5911 5911 5911 5911 5910 5910 5910 5910 5909
5940 5939 5939 5938 5937 5936 5934 5932 5931 5930 5929 5929 5927 5926 5925 5925 5923 5922 5920 5919 5918 5917 5916 5916 5915 5915 5914 5913 5913 5912 5912 5912 5912 5911 5911 5911 5911 5911 5910 5910 5910 5910 5910 5909 5909 5909 5909 5909 5909
5941 5940 5939 5938 5937 5935 5934 5932 5931 5930 5929 5928 5927 5926 5925 5924 5923 5921 5919 5918 5917 5916 5915 5914 5913 5913 5912 5912 5911 5911 5910 5910 5910 5909 5909 5909 5909 5909 5909 5909 5909 5908 5908 5908 5908 5908 5908 5908 5908
5941 5939 5939 5937 5936 5934 5933 5932 5931 5930 5929 5927 5926 5925 5923 5922 5921 5920 5918 5916 5915 5914 5913 5912 5911 5910 5910 5909 5909 5908 5908 5908 5908 5908 5907 5907 5907 5907 5907 5907 5907 5907 5907 5907 5907 5907 5907 5907 5907
5942 5940 5939 5938 5937 5934 5933 5932 5931 5929 5928 5926 5925 5923 5921 5920 5919 5917 5915 5913 5912 5911 5910 5908 5907 5907 5906 5906 5906 5905 5905 5905 5904 5904 5905 5904 5904 5904 5904 5905 5905 5905 5905 5905 5905 5905 5905 5905 5905
5941 5940 5938 5938 5936 5935 5933 5931 5929 5928 5926 5925 5923 5921 5919 5918 5915 5914 5912 5910 5909 5907 5906 5905 5904 5903 5902 5902 5901 5901 5901 5900 5900 5900 5901 5901 5901 5901 5901 5902 5902 5902 5903 5903 5903 5903 5904 5904 5904
5941 5941 5938 5936 5935 5934 5932 5930 5928 5925 5924 5922 5920 5918 5916 5914 5912 5910 5908 5906 5904 5903 5901 5900 5899 5898 5897 5897 5896 5896 5896 5896 5896 5896 5896 5896 5897 5897 5898 5898 5899 5899 5900 5900 5901 5901 5901 5902 5902
5940 5938 5937 5936 5934 5932 5930 5929 5926 5923 5921 5919 5917 5915 5912 5910 5908 5905 5903 5901 5899 5897 5895 5894 5893 5892 5891 5891 5890 5890 5890 5890 5890 5890 5891 5891 5892 5892 5893 5894 5894 5895 5896 5897 5897 5898 5899 5899 5900
5938 5937 5935 5933 5931 5929 5927 5926 5923 5920 5918 5916 5913 5911 5908 5905 5902 5900 5897 5895 5893 5890 5888 5887 5886 5885 5884 5883 5883 5883 5883 5883 5883 5883 5884 5885 5886 5886 5887 5888 5890 5891 5891 5892 5894 5895 5896 5896 5897
5936 5934 5933 5931 5929 5927 5925 5922 5920 5917 5915 5912 5909 5906 5902 5899 5897 5893 5890 5888 5885 5883 5881 5879 5877 5876 5876 5875 5875 5875 5875 5875 5875 5876 5877 5878 5879 5880 5881 5882 5884 5885 5886 5888 5889 5890 5892 5893 5894
5934 5932 5931 5929 5927 5925 5923 5920 5917 5913 5911 5907 5904 5900 5897 5893 5890 5886 5883 5880 5877 5874 5872 5870 5868 5867 5866 5866 5866 5866 5866 5867 5868 5869 5869 5870 5872 5873 5874 5875 5877 5878 5880 5882 5884 5885 5887 5889 5890
5932 5930 5929 5927 5925 5923 5921 5917 5914 5910 5906 5903 5899 5895 5892 5888 5883 5879 5876 5872 5869 5866 5863 5860 5858 5857 5856 5855 5855 5855 5856 5857 5858 5859 5861 5862 5863 5865 5866 5868 5870 5871 5873 5875 5877 5879 5882 5884 5885
5930 5929 5927 5925 5923 5921 5918 5914 5910 5906 5901 5897 5894 5890 5886 5882 5877 5873 5868 5864 5860 5857 5854 5851 5848 5847 5845 5845 5844 5845 5845 5846 5847 5849 5851 5852 5854 5856 5858 5860 5862 5864 5866 5868 5870 5873 5876 5878 5880
5927 5927 5925 5923 5920 5917 5916 5911 5906 5902 5897 5893 5889 5885 5880 5875 5870 5866 5861 5856 5852 5849 5845 5842 5839 5837 5836 5835 5834 5834 5834 5835 5836 5838 5840 5842 5844 5846 5848 5851 5853 5856 5858 5860 5863 5865 5868 5872 5874
5925 5924 5922 5920 5916 5914 5911 5907 5902 5897 5893 5888 5884 5879 5874 5869 5864 5859 5854 5849 5845 5841 5837 5833 5830 5828 5826 5824 5823 5823 5823 5824 5825 5827 5829 5831 5834 5836 5838 5841 5844 5847 5850 5853 5855 5858 5861 5864 5868
5922 5920 5918 5916 5913 5910 5907 5903 5899 5894 5889 5885 5880 5875 5869 5864 5858 5852 5847 5842 5837 5833 5829 5825 5822 5819 5816 5815 5813 5813 5813 5813 5814 5815 5818 5820 5823 5826 5829 5832 5835 5838 5841 5845 5847 5850 5853 5857 5860
5920 5918 5915 5913 5910 5907 5903 5900 5896 5891 5887 5882 5877 5871 5865 5859 5853 5847 5841 5835 5830 5826 5822 5818 5814 5810 5808 5805 5804 5803 5802 5802 5803 5804 5806 5809 5812 5815 5819 5822 5825 5829 5832 5836 5839 5842 5846 5849 5853
5917 5915 5913 5910 5907 5904 5901 5898 5894 5889 5885 5880 5874 5868 5862 5855 5848 5842 5835 5829 5824 5820 5815 5811 5807 5803 5800 5797 5795 5793 5792 5792 5792 5793 5795 5798 5801 5804 5808 5812 5815 5819 5823 5827 5830 5834 5837 5841 5845
5914 5913 5910 5908 5905 5901 5899 5895 5891 5887 5882 5877 5871 5865 5858 5851 5844 5838 5831 5825 5820 5814 5809 5805 5801 5797 5793 5790 5787 5785 5784 5783 5783 5783 5785 5787 5790 5793 5797 5801 5805 5809 5814 5818 5821 5825 5829 5833 5837
5912 5911 5908 5906 5903 5899 5897 5894 5889 5884 5879 5874 5868 5862 5855 5848 5842 5835 5828 5822 5816 5810 5805 5800 5796 5792 5788 5784 5781 5778 5776 5775 5774 5774 5775 5777 5780 5783 5786 5790 5795 5799 5804 5808 5812 5816 5820 5825 5829
5911 5909 5907 5904 5901 5898 5895 5891 5888 5882 5877 5872 5866 5859 5853 5847 5840 5833 5826 5819 5813 5807 5802 5797 5792 5787 5783 5779 5776 5773 5770 5768 5767 5767 5767 5769 5771 5773 5776 5780 5785 5789 5794 5799 5803 5808 5812 5816 5820
5909 5908 5905 5903 5900 5898 5894 5889 5885 5880 5875 5870 5864 5858 5852 5845 5838 5831 5824 5818 5811 5805 5799 5794 5789 5785 5780 5776 5772 5768 5765 5763 5761 5760 5760 5761 5763 5765 5767 5771 5775 5780 5784 5789 5794 5798 5803 5808 5812
5908 5907 5905 5902 5899 5896 5892 5888 5884 5879 5874 5869 5864 5858 5851 5844 5838 5831 5824 5817 5811 5804 5798 5793 5788 5783 5778 5773 5769 5765 5761 5758 5756 5755 5755 5755 5756 5757 5760 5763 5767 5771 5775 5779 5784 5789 5794 5799 5803
5906 5905 5904 5902 5898 5895 5891 5887 5884 5879 5874 5869 5863 5857 5851 5844 5838 5831 5824 5818 5811 5804 5798 5792 5787 5782 5777 5772 5767 5763 5759 5756 5754 5752 5751 5750 5751 5752 5753 5756 5759 5763 5766 5770 5775 5780 5785 5790 5794
5904 5903 5902 5900 5897 5894 5891 5887 5883 5878 5874 5869 5863 5857 5851 5845 5838 5831 5825 5818 5811 5805 5799 5793 5787 5782 5776 5771 5766 5762 5758 5755 5752 5749 5748 5747 5747 5747 5749 5751 5753 5756 5759 5763 5766 5771 5776 5780 5786
5904 5902 5901 5899 5896 5893 5891 5887 5884 5878 5874 5869 5863 5858 5852 5846 5839 5832 5826 5819 5813 5806 5800 5794 5788 5782 5777 5771 5766 5762 5757 5754 5750 5748 5746 5745 5744 5744 5745 5746 5747 5749 5752 5755 5759 5763 5767 5772 5777
5903 5902 5900 5898 5895 5893 5890 5889 5883 5879 5874 5869 5864 5858 5853 5847 5840 5834 5827 5821 5814 5808 5802 5796 5789 5784 5778 5773 5767 5762 5758 5754 5750 5747 5745 5743 5742 5741 5741 5741 5742 5743 5745 5748 5752 5756 5760 5765 5769
5902 5901 5899 5898 5896 5892 5890 5890 5883 5879 5874 5869 5864 5859 5853 5848 5842 5835 5829 5822 5816 5810 5804 5798 5791 5786 5780 5774 5769 5764 5759 5754 5750 5747 5744 5742 5740 5739 5739 5739 5739 5739 5741 5743 5746 5750 5753 5758 5762